Location: Rounton
(54.4000°N, 1.3500°W)
Time: 03:40:28
(UTC+00:00)

A-11 Canister half - Pass Details

Date: 08 December 2021
Orbit: 1524 x 1684 km, 47.3° (Epoch: 17 January)

Event Time Altitude Azimuth Distance (km) Brightness Sun altitude
Exits shadow 05:56:52 22° 263° (W) 3,072 10.0 -18.4°
Maximum altitude 06:02:37 40° 210° (SSW) 2,276 9.7 -17.6°
Drops below altitude 10° 06:11:25 10° 146° (SE) 3,826 11.8 -16.3°
Sets 06:14:43 0° 139° (SE) 4,787 12.6 -15.9°
